Zurück zum Katalog

COSMOS 1320

AktivMilitärLEO
NORAD 12975·PAYLOAD·🇷🇺 Russia

Gestartet Nov 28, 1981 von Plesetsk Cosmodrome

Loading…

Nächste Überflüge (nächste 24 Stunden)

TLE

AktuellSource: Space-Track

Epoche: Sep 14, 2026, 14:47 UTC

1 12975U 81116A   26257.61664742 -.00000007  00000-0  64828-4 0  9999
2 12975  73.9827 305.7589 0096231 148.1418 286.8738 12.28046251  8154

Verfolge COSMOS 1320 in Echtzeit mit AllMySat

Download on the App Store